Time,TemperatureF,DewpointF,PressureIn,WindDirection,WindDirectionDegrees,WindSpeedMPH,WindSpeedGustMPH,Humidity,HourlyPrecipIn,Conditions,Clouds,dailyrainin,SolarRadiationWatts/m^2,SoftwareType,DateUTC
2013-05-24 00:13:00,43.7,40.0,30.13,NW,308,1.0,9.0,87,0.00,,,0.00,0,weatherlink.com 1.10,2013-05-24 04:13:00,
2013-05-24 00:28:00,43.1,40.0,30.13,North,359,5.0,9.0,88,0.00,,,0.00,0,weatherlink.com 1.10,2013-05-24 04:28:00,
2013-05-24 00:43:00,42.6,40.0,30.14,North,354,2.0,10.0,89,0.00,,,0.00,0,weatherlink.com 1.10,2013-05-24 04:43:00,
2013-05-24 00:59:00,42.3,40.0,30.14,North,4,4.0,8.0,90,0.00,,,0.00,0,weatherlink.com 1.10,2013-05-24 04:59:00,
2013-05-24 01:14:00,42.0,39.0,30.14,NNW,335,3.0,8.0,90,0.00,,,0.00,0,weatherlink.com 1.10,2013-05-24 05:14:00,
2013-05-24 01:29:00,41.7,39.0,30.15,NNW,344,6.0,8.0,91,0.00,,,0.00,0,weatherlink.com 1.10,2013-05-24 05:29:00,
2013-05-24 01:44:00,41.8,39.0,30.15,NW,306,5.0,9.0,91,0.00,,,0.00,0,weatherlink.com 1.10,2013-05-24 05:44:00,
2013-05-24 01:59:00,42.0,40.0,30.15,North,354,4.0,8.0,91,0.00,,,0.00,0,weatherlink.com 1.10,2013-05-24 05:59:00,
2013-05-24 02:14:00,42.1,40.0,30.15,NNW,347,1.0,7.0,91,0.00,,,0.00,0,weatherlink.com 1.10,2013-05-24 06:14:00,
2013-05-24 02:29:00,42.4,40.0,30.16,NNW,339,2.0,10.0,91,0.00,,,0.00,0,weatherlink.com 1.10,2013-05-24 06:29:00,
2013-05-24 02:44:00,42.1,40.0,30.15,North,359,5.0,8.0,91,0.00,,,0.00,0,weatherlink.com 1.10,2013-05-24 06:44:00,
2013-05-24 02:59:00,41.8,39.0,30.16,North,4,5.0,7.0,91,0.00,,,0.00,0,weatherlink.com 1.10,2013-05-24 06:59:00,
2013-05-24 03:14:00,41.5,39.0,30.17,NNW,330,4.0,9.0,92,0.00,,,0.00,0,weatherlink.com 1.10,2013-05-24 07:14:00,
2013-05-24 03:29:00,41.1,39.0,30.17,NNW,335,3.0,7.0,93,0.00,,,0.00,0,weatherlink.com 1.10,2013-05-24 07:29:00,
2013-05-24 03:44:00,40.8,39.0,30.17,NNW,335,0.0,6.0,93,0.00,,,0.00,0,weatherlink.com 1.10,2013-05-24 07:44:00,
2013-05-24 03:59:00,40.6,39.0,30.18,NNW,336,2.0,6.0,93,0.00,,,0.00,0,weatherlink.com 1.10,2013-05-24 07:59:00,
2013-05-24 04:14:00,40.3,39.0,30.18,NE,37,0.0,5.0,93,0.00,,,0.00,0,weatherlink.com 1.10,2013-05-24 08:14:00,
2013-05-24 04:29:00,40.1,38.0,30.17,NNE,27,2.0,4.0,93,0.00,,,0.00,0,weatherlink.com 1.10,2013-05-24 08:29:00,
2013-05-24 04:44:00,39.9,38.0,30.18,NNE,21,3.0,6.0,93,0.00,,,0.00,0,weatherlink.com 1.10,2013-05-24 08:44:00,
2013-05-24 04:59:00,39.8,38.0,30.19,NNE,18,2.0,5.0,93,0.00,,,0.00,0,weatherlink.com 1.10,2013-05-24 08:59:00,
2013-05-24 05:14:00,39.5,37.0,30.19,NNE,15,0.0,6.0,92,0.00,,,0.00,0,weatherlink.com 1.10,2013-05-24 09:14:00,
2013-05-24 05:29:00,39.3,37.0,30.19,North,4,2.0,5.0,92,0.00,,,0.00,0,weatherlink.com 1.10,2013-05-24 09:29:00,
2013-05-24 05:44:00,39.1,37.0,30.20,North,4,2.0,5.0,92,0.00,,,0.00,0,weatherlink.com 1.10,2013-05-24 09:44:00,
2013-05-24 05:59:00,38.9,37.0,30.21,North,4,0.0,4.0,92,0.00,,,0.00,0,weatherlink.com 1.10,2013-05-24 09:59:00,
2013-05-24 06:14:00,38.7,37.0,30.21,North,359,0.0,4.0,92,0.00,,,0.00,0,weatherlink.com 1.10,2013-05-24 10:14:00,
2013-05-24 06:29:00,38.4,36.0,30.22,NW,323,2.0,6.0,92,0.00,,,0.00,11,weatherlink.com 1.10,2013-05-24 10:29:00,
2013-05-24 06:44:00,38.6,36.0,30.23,NNW,336,5.0,6.0,91,0.00,,,0.00,16,weatherlink.com 1.10,2013-05-24 10:44:00,
2013-05-24 06:59:00,38.9,36.0,30.24,NNW,337,3.0,6.0,90,0.00,,,0.00,23,weatherlink.com 1.10,2013-05-24 10:59:00,
2013-05-24 07:14:00,39.6,37.0,30.24,North,359,2.0,6.0,89,0.00,,,0.00,53,weatherlink.com 1.10,2013-05-24 11:14:00,
2013-05-24 07:29:00,40.5,37.0,30.25,NNE,18,0.0,6.0,87,0.00,,,0.00,90,weatherlink.com 1.10,2013-05-24 11:29:00,
2013-05-24 07:45:00,41.0,37.0,30.26,North,354,0.0,7.0,87,0.00,,,0.00,139,weatherlink.com 1.10,2013-05-24 11:45:00,
2013-05-24 08:00:00,41.5,37.0,30.27,NNW,338,4.0,9.0,84,0.00,,,0.00,193,weatherlink.com 1.10,2013-05-24 12:00:00,
2013-05-24 08:15:00,42.0,38.0,30.27,NNE,15,2.0,8.0,84,0.00,,,0.00,246,weatherlink.com 1.10,2013-05-24 12:15:00,
2013-05-24 08:30:00,42.9,38.0,30.28,North,354,1.0,8.0,82,0.00,,,0.00,295,weatherlink.com 1.10,2013-05-24 12:30:00,
2013-05-24 08:45:00,44.0,38.0,30.29,NE,41,0.0,6.0,79,0.00,,,0.00,343,weatherlink.com 1.10,2013-05-24 12:45:00,
2013-05-24 09:00:00,44.0,38.0,30.29,NNE,28,1.0,7.0,79,0.00,,,0.00,392,weatherlink.com 1.10,2013-05-24 13:00:00,
2013-05-24 09:15:00,45.1,38.0,30.29,NNE,27,2.0,5.0,77,0.00,,,0.00,441,weatherlink.com 1.10,2013-05-24 13:15:00,
2013-05-24 09:30:00,46.1,39.0,30.30,North,354,3.0,7.0,75,0.00,,,0.00,487,weatherlink.com 1.10,2013-05-24 13:30:00,
2013-05-24 09:45:00,47.4,39.0,30.30,NNE,25,2.0,5.0,73,0.00,,,0.00,534,weatherlink.com 1.10,2013-05-24 13:45:00,
2013-05-24 10:00:00,48.1,39.0,30.30,NNE,26,2.0,6.0,72,0.00,,,0.00,580,weatherlink.com 1.10,2013-05-24 14:00:00,
2013-05-24 10:15:00,48.8,40.0,30.31,NNW,329,0.0,7.0,72,0.00,,,0.00,622,weatherlink.com 1.10,2013-05-24 14:15:00,
2013-05-24 10:30:00,49.1,40.0,30.31,ENE,65,3.0,9.0,70,0.00,,,0.00,664,weatherlink.com 1.10,2013-05-24 14:30:00,
2013-05-24 10:45:00,50.3,40.0,30.32,North,354,1.0,10.0,68,0.00,,,0.00,710,weatherlink.com 1.10,2013-05-24 14:45:00,
2013-05-24 11:00:00,50.5,40.0,30.32,NNW,328,2.0,10.0,67,0.00,,,0.00,768,weatherlink.com 1.10,2013-05-24 15:00:00,
2013-05-24 11:15:00,50.8,39.0,30.32,WNW,292,5.0,10.0,65,0.00,,,0.00,800,weatherlink.com 1.10,2013-05-24 15:15:00,
2013-05-24 11:31:00,51.1,38.0,30.32,NNW,336,2.0,10.0,62,0.00,,,0.00,812,weatherlink.com 1.10,2013-05-24 15:31:00,
2013-05-24 11:46:00,51.4,39.0,30.31,North,354,7.0,11.0,64,0.00,,,0.00,835,weatherlink.com 1.10,2013-05-24 15:46:00,
2013-05-24 12:01:00,51.5,39.0,30.31,NW,314,4.0,13.0,62,0.00,,,0.00,860,weatherlink.com 1.10,2013-05-24 16:01:00,
2013-05-24 12:16:00,52.4,39.0,30.32,WNW,293,6.0,13.0,60,0.00,,,0.00,882,weatherlink.com 1.10,2013-05-24 16:16:00,
2013-05-24 12:31:00,53.1,39.0,30.32,NNE,27,5.0,9.0,60,0.00,,,0.00,902,weatherlink.com 1.10,2013-05-24 16:31:00,
2013-05-24 12:46:00,53.7,38.0,30.32,NNW,340,4.0,17.0,56,0.00,,,0.00,919,weatherlink.com 1.10,2013-05-24 16:46:00,
2013-05-24 13:01:00,54.9,39.0,30.32,NW,316,4.0,11.0,55,0.00,,,0.00,933,weatherlink.com 1.10,2013-05-24 17:01:00,
2013-05-24 13:16:00,54.8,37.0,30.31,NNW,341,4.0,12.0,52,0.00,,,0.00,944,weatherlink.com 1.10,2013-05-24 17:16:00,
2013-05-24 13:31:00,55.9,38.0,30.31,NNW,332,4.0,13.0,52,0.00,,,0.00,951,weatherlink.com 1.10,2013-05-24 17:31:00,
2013-05-24 13:46:00,56.1,40.0,30.30,NNE,26,4.0,11.0,55,0.00,,,0.00,956,weatherlink.com 1.10,2013-05-24 17:46:00,
2013-05-24 14:01:00,56.9,41.0,30.30,North,359,7.0,13.0,55,0.00,,,0.00,960,weatherlink.com 1.10,2013-05-24 18:01:00,
2013-05-24 14:16:00,57.0,41.0,30.30,NW,322,6.0,12.0,55,0.00,,,0.00,949,weatherlink.com 1.10,2013-05-24 18:16:00,
2013-05-24 14:31:00,57.3,40.0,30.31,North,359,3.0,12.0,52,0.00,,,0.00,942,weatherlink.com 1.10,2013-05-24 18:31:00,
2013-05-24 14:46:00,56.9,40.0,30.30,SW,216,6.0,13.0,54,0.00,,,0.00,930,weatherlink.com 1.10,2013-05-24 18:46:00,
2013-05-24 15:01:00,56.6,39.0,30.30,NW,320,4.0,13.0,53,0.00,,,0.00,918,weatherlink.com 1.10,2013-05-24 19:01:00,
2013-05-24 15:16:00,57.2,40.0,30.30,WNW,302,4.0,15.0,54,0.00,,,0.00,905,weatherlink.com 1.10,2013-05-24 19:16:00,
2013-05-24 15:31:00,56.9,39.0,30.30,NW,305,7.0,13.0,52,0.00,,,0.00,884,weatherlink.com 1.10,2013-05-24 19:31:00,
2013-05-24 15:46:00,56.8,39.0,30.30,NNW,340,9.0,16.0,52,0.00,,,0.00,863,weatherlink.com 1.10,2013-05-24 19:46:00,
2013-05-24 16:01:00,57.5,39.0,30.30,North,350,2.0,15.0,50,0.00,,,0.00,835,weatherlink.com 1.10,2013-05-24 20:01:00,
2013-05-24 16:16:00,57.9,38.0,30.29,WNW,303,7.0,11.0,47,0.00,,,0.00,807,weatherlink.com 1.10,2013-05-24 20:16:00,
2013-05-24 16:31:00,58.3,38.0,30.29,NW,314,0.0,10.0,48,0.00,,,0.00,773,weatherlink.com 1.10,2013-05-24 20:31:00,
2013-05-24 16:46:00,58.8,38.0,30.28,WNW,301,6.0,11.0,47,0.00,,,0.00,738,weatherlink.com 1.10,2013-05-24 20:46:00,
2013-05-24 17:01:00,58.2,39.0,30.29,WNW,296,3.0,15.0,50,0.00,,,0.00,701,weatherlink.com 1.10,2013-05-24 21:01:00,
2013-05-24 17:16:00,58.3,39.0,30.28,NNW,347,5.0,13.0,49,0.00,,,0.00,663,weatherlink.com 1.10,2013-05-24 21:16:00,
2013-05-24 17:31:00,58.2,38.0,30.27,NW,321,5.0,8.0,48,0.00,,,0.00,621,weatherlink.com 1.10,2013-05-24 21:31:00,
2013-05-24 17:46:00,58.1,37.0,30.27,NE,37,6.0,10.0,46,0.00,,,0.00,578,weatherlink.com 1.10,2013-05-24 21:46:00,
2013-05-24 18:01:00,58.3,38.0,30.26,NNW,337,7.0,10.0,47,0.00,,,0.00,531,weatherlink.com 1.10,2013-05-24 22:01:00,
2013-05-24 18:16:00,57.7,36.0,30.26,NE,52,4.0,9.0,44,0.00,,,0.00,487,weatherlink.com 1.10,2013-05-24 22:16:00,
2013-05-24 18:31:00,58.3,37.0,30.24,NE,46,5.0,9.0,46,0.00,,,0.00,438,weatherlink.com 1.10,2013-05-24 22:31:00,
2013-05-24 18:46:00,58.2,37.0,30.24,NE,41,4.0,9.0,45,0.00,,,0.00,390,weatherlink.com 1.10,2013-05-24 22:46:00,
2013-05-24 19:01:00,57.8,37.0,30.24,NNE,26,1.0,6.0,46,0.00,,,0.00,341,weatherlink.com 1.10,2013-05-24 23:01:00,
2013-05-24 19:16:00,58.5,38.0,30.22,North,354,1.0,8.0,46,0.00,,,0.00,290,weatherlink.com 1.10,2013-05-24 23:16:00,
2013-05-24 19:31:00,58.2,37.0,30.22,North,354,1.0,8.0,46,0.00,,,0.00,241,weatherlink.com 1.10,2013-05-24 23:31:00,
2013-05-24 19:46:00,57.2,37.0,30.22,NNE,28,1.0,9.0,48,0.00,,,0.00,183,weatherlink.com 1.10,2013-05-24 23:46:00,
2013-05-24 20:01:00,57.4,39.0,30.22,North,4,0.0,6.0,50,0.00,,,0.00,128,weatherlink.com 1.10,2013-05-25 00:01:00,
2013-05-24 20:16:00,56.8,39.0,30.22,North,4,2.0,7.0,51,0.00,,,0.00,77,weatherlink.com 1.10,2013-05-25 00:16:00,
2013-05-24 20:31:00,56.0,38.0,30.22,NNW,330,4.0,7.0,52,0.00,,,0.00,40,weatherlink.com 1.10,2013-05-25 00:31:00,
2013-05-24 20:46:00,54.3,38.0,30.23,NW,314,2.0,7.0,54,0.00,,,0.00,16,weatherlink.com 1.10,2013-05-25 00:46:00,
2013-05-24 21:01:00,52.4,37.0,30.24,WNW,287,6.0,8.0,56,0.00,,,0.00,7,weatherlink.com 1.10,2013-05-25 01:01:00,
2013-05-24 21:16:00,51.6,36.0,30.24,NW,306,3.0,6.0,56,0.00,,,0.00,0,weatherlink.com 1.10,2013-05-25 01:16:00,
2013-05-24 21:31:00,50.8,36.0,30.25,NW,311,1.0,6.0,58,0.00,,,0.00,0,weatherlink.com 1.10,2013-05-25 01:31:00,
2013-05-24 21:46:00,50.3,36.0,30.25,NW,305,0.0,7.0,58,0.00,,,0.00,0,weatherlink.com 1.10,2013-05-25 01:46:00,
2013-05-24 22:02:00,49.7,36.0,30.25,NW,305,2.0,4.0,59,0.00,,,0.00,0,weatherlink.com 1.10,2013-05-25 02:02:00,
2013-05-24 22:16:00,49.0,36.0,30.26,NW,305,0.0,5.0,62,0.00,,,0.00,0,weatherlink.com 1.10,2013-05-25 02:16:00,
2013-05-24 22:31:00,48.5,36.0,30.27,NW,305,1.0,6.0,63,0.00,,,0.00,0,weatherlink.com 1.10,2013-05-25 02:31:00,
2013-05-24 22:46:00,47.8,36.0,30.27,NNW,330,3.0,6.0,64,0.00,,,0.00,0,weatherlink.com 1.10,2013-05-25 02:46:00,
2013-05-24 23:02:00,47.4,36.0,30.28,NW,318,0.0,7.0,65,0.00,,,0.00,0,weatherlink.com 1.10,2013-05-25 03:02:00,
2013-05-24 23:17:00,46.7,36.0,30.28,NNE,23,1.0,7.0,66,0.00,,,0.00,0,weatherlink.com 1.10,2013-05-25 03:17:00,
2013-05-24 23:32:00,45.9,36.0,30.28,NW,322,2.0,7.0,68,0.00,,,0.00,0,weatherlink.com 1.10,2013-05-25 03:32:00,
2013-05-24 23:47:00,45.1,36.0,30.29,NNW,345,1.0,6.0,71,0.00,,,0.00,0,weatherlink.com 1.10,2013-05-25 03:47:00,